Location: Newark
(35.3494°N, 94.4375°W)
Time: 14:48:13
(UTC+00:00)

N. Korean satellite - Visible Passes

Search period start: 27 September 2020 00:00
Search period end: 07 October 2020 00:00
Orbit: 455 x 503 km, 97.2° (Epoch: 26 September)

Date Brightness Start Highest point End Pass type
(mag) Time Alt. Az. Time Alt. Az. Time Alt. Az.
27 Sep 10.0 10:50:04 10° ENE 10:51:39 12° E 10:53:14 10° ESE visible
29 Sep 7.8 11:29:39 10° NNE 11:33:07 45° E 11:36:30 10° S visible
30 Sep 9.5 11:04:19 10° NE 11:06:59 20° E 11:09:37 10° SE visible
02 Oct 6.7 11:44:46 10° NNE 11:48:20 79° E 11:51:50 10° S visible
03 Oct 8.6 11:19:03 10° NNE 11:22:15 31° E 11:25:23 10° SSE visible
04 Oct 9.9 10:54:08 10° ENE 10:56:04 14° E 10:57:59 10° SE visible
06 Oct 7.4 11:33:59 10° NNE 11:37:27 53° E 11:40:50 10° S visible
